�������l�o���
Date,Time,MP-1(��Sv/h),MP-2(��Sv/h),MP-3(��Sv/h),MP-4(��Sv/h),MP-5(��Sv/h),MP-6(��Sv/h),MP-7(��Sv/h),MP-8(��Sv/h),����,����(m/s),���J
2017/03/29,00:00,0.993,1.618,1.127,1.931,1.323,0.537,0.987,0.919,�k�k��,2.6,��
2017/03/29,00:10,0.988,1.621,1.126,1.929,1.323,0.538,0.988,0.920,�k��,3.0,��
2017/03/29,00:20,0.993,1.620,1.126,1.932,1.323,0.538,0.989,0.919,�k��,3.4,��
2017/03/29,00:30,0.992,1.619,1.128,1.930,1.322,0.537,0.986,0.920,�k��,4.5,��
2017/03/29,00:40,0.991,1.623,1.127,1.930,1.322,0.538,0.988,0.920,�k��,4.0,��
2017/03/29,00:50,0.993,1.619,1.127,1.929,1.322,0.536,0.987,0.920,�k��,4.5,��
2017/03/29,01:00,0.992,1.620,1.128,1.931,1.322,0.537,0.987,0.919,�k��,5.0,��
2017/03/29,01:10,0.992,1.620,1.128,1.930,1.322,0.537,0.989,0.919,�k��,5.2,��
2017/03/29,01:20,0.990,1.620,1.129,1.932,1.324,0.537,0.988,0.919,���k��,5.1,��
2017/03/29,01:30,0.991,1.619,1.130,1.930,1.322,0.537,0.988,0.920,���k��,4.9,��
2017/03/29,01:40,0.991,1.621,1.128,1.931,1.321,0.538,0.988,0.918,���k��,4.5,��
2017/03/29,01:50,0.994,1.619,1.128,1.932,1.323,0.536,0.989,0.919,�k��,5.7,��
2017/03/29,02:00,0.990,1.620,1.128,1.927,1.324,0.536,0.987,0.920,���k��,6.0,��
2017/03/29,02:10,0.990,1.620,1.125,1.930,1.323,0.536,0.987,0.919,���k��,5.7,��
2017/03/29,02:20,0.989,1.620,1.127,1.930,1.323,0.536,0.989,0.920,���k��,5.6,��
2017/03/29,02:30,0.991,1.620,1.127,1.933,1.324,0.537,0.988,0.919,�k��,5.4,��
2017/03/29,02:40,0.990,1.618,1.127,1.929,1.324,0.538,0.988,0.918,���k��,5.6,��
2017/03/29,02:50,0.991,1.618,1.125,1.932,1.321,0.538,0.988,0.916,���k��,5.8,��
2017/03/29,03:00,0.989,1.621,1.128,1.931,1.322,0.538,0.988,0.919,���k��,5.4,��
2017/03/29,03:10,0.992,1.619,1.126,1.930,1.323,0.536,0.988,0.919,���k��,5.8,��
2017/03/29,03:20,0.990,1.619,1.126,1.930,1.322,0.537,0.987,0.919,���k��,5.8,��
2017/03/29,03:30,0.989,1.621,1.129,1.931,1.322,0.536,0.988,0.919,���k��,4.8,��
2017/03/29,03:40,0.993,1.621,1.126,1.933,1.321,0.536,0.987,0.919,���k��,5.3,��
2017/03/29,03:50,0.990,1.621,1.126,1.930,1.325,0.537,0.985,0.919,��,5.3,��
2017/03/29,04:00,0.992,1.620,1.128,1.929,1.321,0.538,0.987,0.918,��,5.1,��
2017/03/29,04:10,0.990,1.616,1.126,1.928,1.322,0.537,0.985,0.916,���k��,6.0,��
2017/03/29,04:20,0.989,1.618,1.127,1.931,1.322,0.536,0.987,0.920,���k��,5.8,��
2017/03/29,04:30,0.987,1.620,1.129,1.930,1.323,0.536,0.987,0.919,���k��,5.3,��
2017/03/29,04:40,0.988,1.619,1.124,1.928,1.322,0.536,0.986,0.918,���k��,5.2,��
2017/03/29,04:50,0.988,1.620,1.126,1.927,1.323,0.537,0.988,0.919,���k��,5.2,��
2017/03/29,05:00,0.990,1.618,1.126,1.929,1.325,0.534,0.985,0.919,���k��,5.6,��
2017/03/29,05:10,0.989,1.616,1.124,1.930,1.321,0.536,0.986,0.917,���k��,4.5,��
2017/03/29,05:20,0.989,1.619,1.125,1.930,1.322,0.535,0.987,0.918,���k��,4.0,��
2017/03/29,05:30,0.990,1.618,1.125,1.930,1.324,0.536,0.987,0.919,�k��,2.9,��
2017/03/29,05:40,0.991,1.618,1.126,1.931,1.322,0.535,0.987,0.917,�k��,2.8,��
2017/03/29,05:50,0.988,1.619,1.123,1.929,1.321,0.535,0.987,0.920,�k��,2.3,��
2017/03/29,06:00,0.990,1.616,1.125,1.932,1.322,0.535,0.984,0.918,���k��,2.3,��
2017/03/29,06:10,0.987,1.621,1.126,1.926,1.322,0.535,0.985,0.920,���k��,2.5,��
2017/03/29,06:20,0.990,1.619,1.127,1.928,1.322,0.536,0.987,0.918,���k��,2.2,��
2017/03/29,06:30,0.990,1.619,1.127,1.929,1.321,0.535,0.985,0.919,���k��,2.5,��
2017/03/29,06:40,0.989,1.620,1.126,1.927,1.325,0.537,0.988,0.918,���k��,3.2,��
2017/03/29,06:50,0.992,1.622,1.125,1.932,1.321,0.537,0.984,0.919,���k��,4.2,��
2017/03/29,07:00,0.990,1.620,1.126,1.931,1.323,0.536,0.987,0.919,���k��,4.5,��
2017/03/29,07:10,0.990,1.623,1.126,1.931,1.322,0.538,0.988,0.919,���k��,4.5,��
2017/03/29,07:20,0.991,1.623,1.126,1.932,1.324,0.537,0.990,0.919,���k��,5.4,��
2017/03/29,07:30,0.992,1.625,1.126,1.935,1.323,0.537,0.989,0.921,�k��,5.2,��
2017/03/29,07:40,0.994,1.623,1.126,1.934,1.323,0.538,0.990,0.920,�k��,3.7,��
2017/03/29,07:50,0.991,1.624,1.126,1.933,1.326,0.537,0.989,0.921,�k��,3.4,��
2017/03/29,08:00,0.992,1.625,1.124,1.937,1.326,0.540,0.990,0.922,�k��,5.0,��
2017/03/29,08:10,0.993,1.625,1.127,1.932,1.326,0.535,0.989,0.919,���k��,2.6,��
2017/03/29,08:20,0.993,1.622,1.127,1.935,1.328,0.537,0.989,0.918,�k�k��,3.7,��
2017/03/29,08:30,0.995,1.622,1.127,1.936,1.325,0.537,0.991,0.920,�k�k��,3.0,��
2017/03/29,08:40,0.995,1.624,1.099,1.940,1.328,0.537,0.992,0.920,�k�k��,2.9,��
2017/03/29,08:50,0.993,1.624,1.114,1.938,1.330,0.537,0.988,0.921,�k�k��,4.0,��
2017/03/29,09:00,0.994,1.626,1.112,1.939,1.330,0.538,0.989,0.920,�k�k��,2.3,��
2017/03/29,09:10,0.996,1.626,1.111,1.938,1.328,0.538,0.988,0.922,���k��,2.5,��
2017/03/29,09:20,0.995,1.625,1.113,1.939,1.329,0.539,0.988,0.920,���k��,2.9,��
2017/03/29,09:30,0.996,1.624,1.110,1.936,1.329,0.539,0.987,0.921,���k��,2.8,��
2017/03/29,09:40,0.998,1.632,1.103,1.938,1.331,0.538,0.987,0.919,���k��,3.4,��
2017/03/29,09:50,0.995,1.629,1.105,1.942,1.330,0.537,0.989,0.921,���k��,3.2,��
2017/03/29,10:00,0.996,1.625,1.104,1.940,1.332,0.537,0.987,0.919,��,3.1,��
2017/03/29,10:10,0.996,1.628,1.103,1.939,1.333,0.537,0.988,0.918,���k��,2.9,��
2017/03/29,10:20,0.998,1.626,1.104,1.940,1.335,0.537,0.988,0.917,���쓌,2.9,��
2017/03/29,10:30,0.997,1.631,1.105,1.941,1.332,0.537,0.988,0.918,��쓌,4.1,��
2017/03/29,10:40,0.998,1.628,1.109,1.939,1.332,0.536,0.991,0.919,�쓌,3.4,��
2017/03/29,10:50,1.001,1.629,1.106,1.940,1.332,0.536,0.989,0.918,�쓌,3.5,��
2017/03/29,11:00,1.000,1.630,1.108,1.940,1.332,0.536,0.989,0.918,��쓌,4.3,��
2017/03/29,11:10,1.002,1.630,1.105,1.942,1.334,0.538,0.989,0.920,��쓌,4.2,��
2017/03/29,11:20,1.004,1.629,1.107,1.938,1.333,0.537,0.990,0.918,��쓌,5.6,��
2017/03/29,11:30,1.002,1.632,1.109,1.941,1.336,0.538,0.989,0.918,��쓌,5.7,��
2017/03/29,11:40,1.001,1.633,1.107,1.940,1.333,0.539,0.990,0.920,��쓌,5.1,��
2017/03/29,11:50,1.002,1.629,1.105,1.944,1.336,0.539,0.987,0.919,�쓌,5.0,��
2017/03/29,12:00,1.001,1.632,1.109,1.939,1.338,0.539,0.989,0.922,�쓌,4.3,��
2017/03/29,12:10,1.002,1.636,1.106,1.944,1.336,0.538,0.988,0.921,�쓌,4.8,��
2017/03/29,12:20,1.000,1.636,1.107,1.943,1.335,0.541,0.990,0.922,�쓌,3.9,��
2017/03/29,12:30,1.002,1.634,1.107,1.943,1.337,0.541,0.990,0.921,�쓌,3.7,��
2017/03/29,12:40,1.004,1.637,1.105,1.944,1.340,0.540,0.990,0.923,���쓌,3.9,��
2017/03/29,12:50,1.003,1.637,1.103,1.942,1.337,0.541,0.989,0.924,��쓌,4.4,��
2017/03/29,13:00,1.006,1.635,1.102,1.945,1.339,0.541,0.991,0.922,��쓌,6.0,��
2017/03/29,13:10,1.001,1.637,1.105,1.947,1.340,0.541,0.992,0.921,��쓌,6.1,��
2017/03/29,13:20,1.003,1.636,1.107,1.946,1.339,0.540,0.989,0.919,��쓌,5.7,��
2017/03/29,13:30,1.004,1.634,1.108,1.946,1.339,0.540,0.989,0.918,�쓌,5.4,��
2017/03/29,13:40,1.006,1.640,1.108,1.944,1.341,0.542,0.992,0.919,��쓌,5.0,��
2017/03/29,13:50,1.005,1.640,1.109,1.946,1.339,0.541,0.991,0.920,��쓌,5.7,��
2017/03/29,14:00,1.006,1.639,1.106,1.946,1.339,0.540,0.991,0.920,�쓌,5.6,��
2017/03/29,14:10,1.004,1.639,1.104,1.947,1.341,0.540,0.990,0.918,�쓌,5.9,��
2017/03/29,14:20,1.003,1.642,1.107,1.949,1.338,0.541,0.989,0.919,�쓌,5.5,��
2017/03/29,14:30,1.005,1.641,1.108,1.949,1.341,0.540,0.989,0.920,�쓌,4.5,��
2017/03/29,14:40,1.005,1.641,1.107,1.945,1.340,0.541,0.990,0.920,���쓌,3.2,��
2017/03/29,14:50,1.005,1.645,1.110,1.948,1.343,0.541,0.989,0.919,�쓌,3.7,��
2017/03/29,15:00,1.003,1.647,1.108,1.951,1.341,0.542,0.988,0.920,�쓌,4.6,��
2017/03/29,15:10,1.003,1.642,1.111,1.947,1.340,0.541,0.990,0.919,�쓌,3.3,��
2017/03/29,15:20,1.003,1.647,1.110,1.948,1.345,0.542,0.989,0.921,�쓌,4.1,��
2017/03/29,15:30,1.008,1.640,1.109,1.947,1.342,0.541,0.991,0.919,�쓌,4.0,��
2017/03/29,15:40,1.005,1.647,1.109,1.945,1.342,0.541,0.992,0.920,��쓌,5.7,��
2017/03/29,15:50,1.006,1.645,1.109,1.950,1.343,0.541,0.992,0.921,�쓌,4.9,��
2017/03/29,16:00,1.006,1.646,1.108,1.951,1.344,0.541,0.993,0.921,��쓌,4.9,��
2017/03/29,16:10,1.007,1.645,1.111,1.947,1.343,0.541,0.989,0.923,��쓌,6.2,��
2017/03/29,16:20,1.005,1.647,1.112,1.950,1.345,0.541,0.990,0.925,��쓌,6.0,��
2017/03/29,16:30,1.005,1.647,1.110,1.949,1.341,0.542,0.992,0.925,��쓌,5.5,��
2017/03/29,16:40,1.007,1.644,1.112,1.949,1.344,0.542,0.991,0.923,�쓌,5.5,��
2017/03/29,16:50,1.005,1.645,1.112,1.948,1.342,0.541,0.991,0.924,��쓌,4.7,��
2017/03/29,17:00,1.003,1.644,1.111,1.949,1.343,0.542,0.990,0.925,��쓌,4.8,��
2017/03/29,17:10,1.007,1.649,1.109,1.948,1.343,0.542,0.992,0.923,��쓌,5.3,��
2017/03/29,17:20,1.005,1.647,1.112,1.948,1.342,0.542,0.993,0.923,��쓌,5.4,��
2017/03/29,17:30,1.006,1.645,1.107,1.948,1.344,0.542,0.991,0.924,��쓌,4.9,��
2017/03/29,17:40,1.005,1.643,1.110,1.946,1.344,0.541,0.994,0.921,��쓌,5.8,��
2017/03/29,17:50,1.005,1.646,1.110,1.947,1.345,0.541,0.992,0.923,��쓌,5.7,��
2017/03/29,18:00,1.005,1.645,1.109,1.948,1.344,0.540,0.994,0.924,��쓌,5.6,��
2017/03/29,18:10,1.004,1.647,1.109,1.945,1.344,0.542,0.992,0.923,��쓌,5.7,��
2017/03/29,18:20,1.004,1.644,1.109,1.947,1.343,0.542,0.992,0.922,��,5.2,��
2017/03/29,18:30,1.005,1.643,1.108,1.946,1.342,0.541,0.994,0.924,��,5.2,��
2017/03/29,18:40,1.005,1.645,1.106,1.946,1.343,0.542,0.992,0.922,��,6.5,��
2017/03/29,18:50,1.003,1.644,1.109,1.947,1.343,0.541,0.991,0.923,��,6.9,��
2017/03/29,19:00,1.005,1.644,1.107,1.946,1.338,0.541,0.993,0.922,��,5.8,��
2017/03/29,19:10,1.003,1.645,1.110,1.947,1.346,0.541,0.992,0.922,��쐼,5.3,��
2017/03/29,19:20,1.004,1.642,1.108,1.947,1.344,0.541,0.993,0.922,��쐼,6.0,��
2017/03/29,19:30,1.004,1.643,1.110,1.947,1.344,0.541,0.992,0.924,��쐼,6.0,��
2017/03/29,19:40,1.004,1.643,1.108,1.948,1.344,0.540,0.994,0.922,��쐼,6.0,��
2017/03/29,19:50,1.005,1.645,1.107,1.948,1.344,0.540,0.994,0.923,�쐼,5.1,��
2017/03/29,20:00,1.002,1.644,1.107,1.948,1.344,0.541,0.992,0.923,�쐼,5.5,��
2017/03/29,20:10,1.003,1.642,1.107,1.948,1.342,0.543,0.992,0.924,�쐼,6.8,��
2017/03/29,20:20,1.006,1.644,1.107,1.947,1.343,0.541,0.992,0.922,�쐼,6.8,��
2017/03/29,20:30,1.003,1.644,1.107,1.946,1.343,0.541,0.992,0.923,�쐼,6.6,��
2017/03/29,20:40,1.004,1.644,1.105,1.946,1.344,0.540,0.992,0.922,�쐼,6.5,��
2017/03/29,20:50,1.005,1.644,1.105,1.949,1.341,0.539,0.993,0.924,�쐼,6.6,��
2017/03/29,21:00,1.004,1.641,1.106,1.946,1.341,0.539,0.993,0.924,�쐼,6.6,��
2017/03/29,21:10,1.005,1.641,1.107,1.942,1.342,0.539,0.994,0.923,�쐼,6.6,��
2017/03/29,21:20,1.004,1.641,1.108,1.947,1.342,0.541,0.993,0.924,�쐼,5.5,��
2017/03/29,21:30,1.005,1.641,1.107,1.945,1.341,0.540,0.990,0.923,�쐼,5.4,��
2017/03/29,21:40,1.004,1.642,1.105,1.944,1.343,0.540,0.992,0.922,�쐼,5.7,��
2017/03/29,21:50,1.004,1.641,1.109,1.944,1.342,0.540,0.990,0.922,�쐼,5.9,��
2017/03/29,22:00,1.004,1.642,1.107,1.945,1.341,0.540,0.991,0.922,�쐼,6.6,��
2017/03/29,22:10,1.003,1.643,1.106,1.947,1.342,0.538,0.989,0.923,�쐼,6.6,��
2017/03/29,22:20,1.006,1.641,1.106,1.944,1.343,0.541,0.991,0.923,�쐼,6.5,��
2017/03/29,22:30,1.002,1.643,1.107,1.945,1.345,0.540,0.992,0.923,�쐼,5.9,��
2017/03/29,22:40,1.004,1.643,1.107,1.947,1.342,0.539,0.990,0.924,�쐼,5.6,��
2017/03/29,22:50,1.006,1.645,1.107,1.947,1.343,0.540,0.993,0.922,�쐼,5.4,��
2017/03/29,23:00,1.003,1.640,1.105,1.946,1.344,0.540,0.989,0.923,�쐼,6.1,��
2017/03/29,23:10,1.006,1.642,1.109,1.947,1.343,0.540,0.990,0.923,�쐼,6.5,��
2017/03/29,23:20,1.004,1.642,1.106,1.945,1.342,0.541,0.991,0.921,�쐼,6.1,��
2017/03/29,23:30,1.003,1.643,1.107,1.948,1.341,0.540,0.990,0.923,�쐼,6.9,��
2017/03/29,23:40,1.003,1.643,1.109,1.947,1.340,0.539,0.991,0.923,�쐼,7.3,��
2017/03/29,23:50,1.004,1.642,1.110,1.949,1.342,0.540,0.990,0.923,�쐼,6.6,��
